Flag for United Kingdom Weather past 2 weeks in Cambridge, England, United Kingdom

Now
38 °F

Clear.


Feels Like: 33 °F
Forecast: 36 / 52 °F
Wind: 8 mph from South

Location: Mildenhall Royal Air Force Base

Current Time: Feb 28, 2015 at 1:02:54 AM

Latest Report: Feb 27, 2015 at 11:58 PM


Visibility: N/A

Pressure: 30.03 "Hg

Humidity: 80%

Dew point: 33 °F

Location of CambridgeLocation

Historic Weather in Cambridge — Graph

°F

Cambridge temperature yesterday

Maximum temperature yesterday: 46 °F (at 3:58 PM)
Minimum temperature yesterday: 30 °F (at 6:58 AM)
Average temperature yesterday: 39 °F

Past Weeks' High & Low Weather Summary

 TemperatureHumidityPressure
High52 °F (Feb 26, 9:58 AM)100% (Feb 15, 1:02 AM)30.73 "Hg (Feb 15, 1:02 AM)
Low29 °F (Feb 22, 4:58 AM)57% (Feb 27, 3:58 PM)29.15 "Hg (Feb 22, 11:58 PM)
Average42 °F84%29.85 "Hg
* Reported Feb 12 11:58 PM — Feb 27 11:58 PM, Cambridge, Weather by CustomWeather, © 2015

Note: Actual official high and low records may vary slightly from our data, if they occured in-between our weather recording intervals... More about our weather records

Advertising

Cambridge weather history for previous 24 hours

 ConditionsComfort  
Time TempWeatherWind HumidityBarometerVisibility
11:58 PM
Fri, Feb 27
38 °FClear.8 mph80%30.03 "HgN/A
10:58 PM38 °FClear.9 mph75%30.05 "HgN/A
9:58 PM39 °FOvercast.8 mph73%30.06 "HgN/A
8:58 PM40 °FOvercast.9 mph72%30.06 "HgN/A
7:58 PM40 °FPassing clouds.8 mph74%30.08 "HgN/A
6:58 PM40 °FPassing clouds.6 mph73%30.09 "HgN/A
6:03 PM39 °FPassing clouds.6 mph75%30.09 "HgN/A
5:58 PM40 °FPassing clouds.6 mph75%30.10 "HgN/A
5:03 PM45 °FScattered clouds.7 mph61%30.09 "HgN/A
4:58 PM46 °FPartly sunny.6 mph62%30.10 "HgN/A
3:58 PM46 °FScattered clouds.10 mph57%30.08 "HgN/A
2:58 PM45 °FScattered clouds.7 mph60%30.09 "HgN/A
1:58 PM46 °FOvercast.9 mph60%30.10 "HgN/A
12:58 PM45 °FPartly sunny.12 mph64%30.10 "HgN/A
11:58 AM45 °FSunny.10 mph66%30.11 "HgN/A
10:58 AM43 °FSunny.13 mph73%30.10 "HgN/A
9:58 AM40 °FSunny.15 mph79%30.10 "HgN/A
8:58 AM36 °FSunny.9 mph85%30.09 "HgN/A
7:58 AM33 °FSunny.6 mph90%30.08 "HgN/A
6:58 AM30 °FSunny.5 mph90%30.06 "HgN/A
5:58 AM31 °FClear.5 mph89%30.04 "HgN/A
4:58 AM32 °FClear.6 mph88%30.04 "HgN/A
3:58 AM30 °FClear.7 mph89%30.02 "HgN/A
2:58 AM31 °FClear.8 mph89%30.00 "HgN/A
Weather by CustomWeather, © 2015

See weather overviewHow to use our weather pages